| time (UTC) | temp F | wind direction | speed knots | gust knots | rain 1hr in | rain 24hr in | rain mn in | humidity % | barometer mb |
| 20260504000010 | 63 | 211 | 0.0 | 1.7 | 0.00 | 0.02 | 0.02 | 67 | 1017.0 |
| 20260503234532 | 65 | 211 | 0.0 | 0.9 | 0.00 | 0.02 | 0.02 | 60 | 1017.0 |
| 20260503233028 | 67 | 292 | 0.0 | 1.7 | 0.00 | 0.02 | 0.02 | 50 | 1016.9 |
| 20260503231531 | 67 | 295 | 0.0 | 1.7 | 0.00 | 0.02 | 0.02 | 54 | 1016.9 |
| 20260503230008 | 68 | 294 | 0.0 | 1.7 | 0.00 | 0.02 | 0.02 | 48 | 1017.0 |
| 20260503224511 | 69 | 192 | 0.9 | 4.3 | 0.00 | 0.02 | 0.02 | 44 | 1017.0 |
| 20260503223022 | 69 | 209 | 3.5 | 5.2 | 0.00 | 0.02 | 0.02 | 42 | 1017.0 |
| 20260503221519 | 70 | 342 | 2.6 | 5.2 | 0.00 | 0.02 | 0.02 | 41 | 1016.9 |
| 20260503220007 | 71 | 334 | 1.7 | 3.5 | 0.00 | 0.02 | 0.02 | 41 | 1016.8 |
| 20260503214510 | 71 | 10 | 2.6 | 4.3 | 0.00 | 0.02 | 0.02 | 42 | 1016.8 |
| 20260503213013 | 69 | 28 | 1.7 | 4.3 | 0.00 | 0.02 | 0.02 | 43 | 1016.9 |
| 20260503211522 | 69 | 236 | 1.7 | 6.1 | 0.00 | 0.02 | 0.02 | 45 | 1017.0 |
| 20260503210026 | 69 | 202 | 0.0 | 3.5 | 0.00 | 0.02 | 0.02 | 45 | 1017.1 |
| 20260503204508 | 69 | 206 | 0.9 | 5.2 | 0.00 | 0.02 | 0.02 | 44 | 1017.2 |
| 20260503203020 | 69 | 214 | 0.9 | 4.3 | 0.00 | 0.02 | 0.02 | 46 | 1017.4 |
| 20260503201523 | 69 | 193 | 3.5 | 7.8 | 0.00 | 0.02 | 0.02 | 45 | 1017.4 |
| 20260503200021 | 70 | 345 | 1.7 | 5.2 | 0.00 | 0.02 | 0.02 | 48 | 1017.6 |
| 20260503194528 | 69 | 80 | 0.0 | 6.1 | 0.00 | 0.02 | 0.02 | 45 | 1017.7 |
| 20260503193009 | 68 | 191 | 0.9 | 5.2 | 0.00 | 0.02 | 0.02 | 48 | 1018.2 |
| 20260503191514 | 70 | 15 | 1.7 | 5.2 | 0.00 | 0.03 | 0.02 | 46 | 1018.6 |
| 20260503190019 | 69 | 221 | 0.9 | 5.2 | 0.00 | 0.04 | 0.02 | 45 | 1018.8 |
| 20260503184530 | 69 | 173 | 0.9 | 6.1 | 0.00 | 0.04 | 0.02 | 46 | 1018.9 |
| 20260503183031 | 67 | 165 | 3.5 | 7.8 | 0.00 | 0.04 | 0.02 | 48 | 1019.2 |
| 20260503181512 | 68 | 235 | 0.9 | 4.3 | 0.00 | 0.04 | 0.02 | 47 | 1019.4 |
| 20260503180025 | 66 | 167 | 4.3 | 6.1 | 0.00 | 0.06 | 0.02 | 47 | 1019.5 |
| 20260503174524 | 67 | 238 | 1.7 | 7.8 | 0.00 | 0.06 | 0.02 | 48 | 1019.7 |
| 20260503173022 | 66 | 321 | 0.9 | 2.6 | 0.00 | 0.06 | 0.02 | 47 | 1019.7 |
| 20260503171529 | 65 | 327 | 0.9 | 5.2 | 0.00 | 0.06 | 0.02 | 49 | 1019.8 |
| 20260503081539 | 46 | 311 | 0.0 | 0.0 | 0.00 | 0.77 | 0.01 | 95 | 1017.1 |
| 20260503071543 | 47 | 311 | 0.0 | 0.9 | 0.00 | 0.85 | 0.01 | 95 | 1016.5 |
| 20260503054520 | 50 | 311 | 0.0 | 1.7 | 0.00 | 0.93 | 0.00 | 94 | 1016.5 |
| 20260503053003 | 50 | 311 | 0.0 | 1.7 | 0.00 | 0.93 | 0.00 | 94 | 1016.5 |
| 20260503051503 | 51 | 321 | 0.9 | 2.6 | 0.00 | 0.93 | 0.00 | 94 | 1016.5 |
| 20260503050006 | 51 | 319 | 0.0 | 1.7 | 0.00 | 0.93 | 0.00 | 94 | 1016.5 |
| 20260503044506 | 51 | 312 | 0.0 | 1.7 | 0.00 | 0.93 | 0.00 | 94 | 1016.2 |
| 20260503043016 | 52 | 352 | 0.0 | 1.7 | 0.00 | 0.93 | 0.00 | 94 | 1016.1 |
| 20260503041527 | 52 | 5 | 0.9 | 2.6 | 0.00 | 0.93 | 0.00 | 94 | 1015.7 |
| 20260503040005 | 52 | 261 | 0.9 | 3.5 | 0.00 | 0.93 | 0.00 | 94 | 1015.8 |
| 20260503034504 | 52 | 311 | 0.0 | 1.7 | 0.00 | 0.93 | 0.93 | 94 | 1015.7 |
| 20260503033008 | 52 | 288 | 0.9 | 2.6 | 0.00 | 0.93 | 0.93 | 94 | 1015.6 |
| 20260503031514 | 51 | 304 | 0.0 | 1.7 | 0.00 | 0.93 | 0.93 | 94 | 1015.4 |
| 20260503030021 | 51 | 284 | 0.0 | 1.7 | 0.00 | 0.93 | 0.93 | 94 | 1015.0 |
| 20260503024504 | 52 | 283 | 0.9 | 1.7 | 0.00 | 0.93 | 0.93 | 94 | 1014.7 |
| 20260503023010 | 52 | 292 | 0.0 | 1.7 | 0.00 | 0.93 | 0.93 | 94 | 1014.6 |
| 20260503021511 | 52 | 309 | 0.9 | 2.6 | 0.00 | 0.93 | 0.93 | 93 | 1014.3 |
| 20260503020021 | 52 | 309 | 0.0 | 1.7 | 0.00 | 0.93 | 0.93 | 93 | 1014.1 |
| 20260503014520 | 53 | 302 | 0.9 | 2.6 | 0.00 | 0.93 | 0.93 | 93 | 1014.1 |
| 20260503013010 | 53 | 298 | 0.9 | 3.5 | 0.00 | 0.94 | 0.93 | 92 | 1014.1 |
| 20260503011508 | 54 | 287 | 0.9 | 1.7 | 0.00 | 0.94 | 0.93 | 92 | 1014.0 |
| 20260503010014 | 54 | 329 | 0.0 | 1.7 | 0.00 | 0.94 | 0.93 | 91 | 1013.5 |
| 20260503004518 | 54 | 5 | 0.9 | 1.7 | 0.00 | 0.94 | 0.93 | 91 | 1013.3 |
| 20260503003034 | 54 | 360 | 1.7 | 3.5 | 0.00 | 0.94 | 0.93 | 90 | 1013.3 |
| 20260503001506 | 55 | 27 | 0.9 | 3.5 | 0.00 | 0.94 | 0.93 | 90 | 1013.2 |